Location: Zürich
(47.3769°N, 8.5417°E)
Time: 10:29:55
(UTC+02:00)

ISS - Pass Details

Date: 25 May 2021
Orbit: 417 x 422 km, 51.6° (Epoch: 13 June)

Event Time Altitude Azimuth Distance (km) Brightness Sun altitude
Rises 23:48:12 0° 294° (WNW) 2,368 0.8 -18.3°
Reaches altitude 10° 23:50:19 10° 291° (WNW) 1,502 -0.4 -18.4°
Maximum altitude 23:53:38 61° 210° (SSW) 480 -3.7 -18.6°
Enters shadow 23:53:41 61° 206° (SSW) 480 -3.8 -18.6°
